| time (UTC) | temp F | wind direction | speed knots | gust knots | rain 1hr in | rain 24hr in | rain mn in | humidity % | barometer mb |
| 20260507070222 | 50 | 222 | 0.0 | 1.7 | 0.03 | 0.31 | 0.03 | 95 | 1008.0 |
| 20260507065721 | 50 | 221 | 0.0 | 2.6 | 0.03 | 0.31 | 0.03 | 95 | 1008.0 |
| 20260507065218 | 50 | 221 | 0.0 | 2.6 | 0.02 | 0.30 | 0.02 | 95 | 1008.3 |
| 20260507064724 | 50 | 221 | 0.0 | 0.0 | 0.00 | 0.28 | 0.00 | 95 | 1008.1 |
| 20260507064718 | 50 | 221 | 0.0 | 0.9 | 0.01 | 0.29 | 0.01 | 95 | 1007.9 |
| 20260507063723 | 50 | 221 | 0.0 | 0.0 | 0.00 | 0.28 | 0.00 | 95 | 1007.5 |
| 20260507063718 | 50 | 221 | 0.0 | 0.0 | 0.00 | 0.28 | 0.00 | 95 | 1007.9 |
| 20260507062718 | 50 | 221 | 0.0 | 0.0 | 0.00 | 0.28 | 0.00 | 95 | 1007.4 |
| 20260507062218 | 50 | 221 | 0.0 | 0.9 | 0.00 | 0.28 | 0.00 | 95 | 1007.5 |
| 20260507061719 | 51 | 221 | 0.0 | 0.9 | 0.00 | 0.28 | 0.00 | 95 | 1007.1 |
| 20260507061226 | 51 | 221 | 0.0 | 0.9 | 0.00 | 0.28 | 0.00 | 94 | 1007.5 |
| 20260507061217 | 51 | 221 | 0.0 | 0.9 | 0.00 | 0.28 | 0.00 | 95 | 1007.4 |
| 20260507060719 | 51 | 221 | 0.0 | 0.9 | 0.00 | 0.28 | 0.00 | 95 | 1007.4 |
| 20260507060339 | 51 | 221 | 0.0 | 0.0 | 0.00 | 0.28 | 0.00 | 94 | 1007.5 |
| 20260507055221 | 51 | 221 | 0.0 | 1.7 | 0.00 | 0.28 | 0.00 | 95 | 1008.0 |
| 20260507055216 | 51 | 221 | 0.0 | 1.7 | 0.00 | 0.28 | 0.00 | 94 | 1007.8 |
| 20260507054221 | 51 | 221 | 0.0 | 1.7 | 0.00 | 0.28 | 0.00 | 95 | 1008.2 |
| 20260507054216 | 51 | 221 | 0.0 | 1.7 | 0.00 | 0.28 | 0.00 | 95 | 1008.1 |
| 20260507053217 | 51 | 221 | 0.0 | 0.9 | 0.00 | 0.28 | 0.00 | 95 | 1008.0 |
| 20260507052721 | 51 | 221 | 0.0 | 0.9 | 0.00 | 0.28 | 0.00 | 95 | 1007.9 |
| 20260507052715 | 52 | 221 | 0.0 | 0.9 | 0.00 | 0.28 | 0.00 | 95 | 1007.8 |
| 20260507052338 | 52 | 221 | 0.0 | 0.9 | 0.00 | 0.28 | 0.00 | 95 | 1007.8 |
| 20260507051214 | 52 | 221 | 0.0 | 0.9 | 0.00 | 0.28 | 0.00 | 95 | 1008.2 |
| 20260507050714 | 52 | 221 | 0.0 | 0.0 | 0.00 | 0.28 | 0.00 | 95 | 1008.2 |
| 20260507050214 | 52 | 221 | 0.0 | 0.0 | 0.00 | 0.28 | 0.00 | 95 | 1008.3 |
| 20260507045715 | 52 | 221 | 0.0 | 0.0 | 0.00 | 0.28 | 0.00 | 96 | 1008.4 |
| 20260507045217 | 52 | 221 | 0.0 | 0.0 | 0.00 | 0.28 | 0.00 | 96 | 1008.5 |
| 20260507044717 | 52 | 221 | 0.0 | 0.0 | 0.00 | 0.28 | 0.00 | 96 | 1008.4 |
| 20260507044215 | 52 | 221 | 0.0 | 0.0 | 0.00 | 0.28 | 0.00 | 96 | 1008.2 |
| 20260507043713 | 52 | 221 | 0.0 | 0.0 | 0.00 | 0.28 | 0.00 | 95 | 1008.2 |
| 20260507043212 | 52 | 221 | 0.0 | 0.0 | 0.00 | 0.28 | 0.00 | 95 | 1008.3 |
| 20260507042713 | 53 | 221 | 0.0 | 0.0 | 0.00 | 0.28 | 0.00 | 96 | 1008.2 |
| 20260507042212 | 53 | 221 | 0.0 | 0.0 | 0.00 | 0.28 | 0.00 | 96 | 1008.0 |
| 20260507041713 | 53 | 221 | 0.0 | 0.0 | 0.00 | 0.28 | 0.00 | 96 | 1008.1 |
| 20260507041213 | 53 | 221 | 0.0 | 0.0 | 0.00 | 0.28 | 0.00 | 95 | 1008.0 |
| 20260507040714 | 53 | 221 | 0.0 | 0.0 | 0.00 | 0.28 | 0.00 | 95 | 1008.0 |
| 20260507040213 | 53 | 221 | 0.0 | 0.9 | 0.00 | 0.28 | 0.00 | 95 | 1008.2 |
| 20260507035712 | 53 | 221 | 0.0 | 0.9 | 0.00 | 0.28 | 0.28 | 95 | 1008.2 |
| 20260507035217 | 53 | 221 | 0.0 | 1.7 | 0.01 | 0.28 | 0.28 | 95 | 1008.1 |
| 20260507035212 | 53 | 221 | 0.0 | 1.7 | 0.01 | 0.28 | 0.28 | 95 | 1008.1 |
| 20260507034212 | 53 | 221 | 0.0 | 1.7 | 0.01 | 0.28 | 0.28 | 95 | 1008.1 |
| 20260507033717 | 53 | 221 | 0.0 | 0.9 | 0.01 | 0.28 | 0.28 | 96 | 1008.2 |
| 20260507033712 | 53 | 221 | 0.0 | 0.9 | 0.01 | 0.28 | 0.28 | 95 | 1008.1 |
| 20260507032715 | 53 | 221 | 0.0 | 0.9 | 0.01 | 0.28 | 0.28 | 96 | 1008.1 |
| 20260507032213 | 53 | 221 | 0.0 | 0.9 | 0.02 | 0.28 | 0.28 | 96 | 1008.3 |
| 20260507031712 | 54 | 221 | 0.0 | 0.9 | 0.02 | 0.28 | 0.28 | 95 | 1008.3 |
| 20260507031214 | 54 | 221 | 0.0 | 0.9 | 0.02 | 0.28 | 0.28 | 95 | 1008.1 |
| 20260507030711 | 53 | 221 | 0.0 | 0.9 | 0.02 | 0.28 | 0.28 | 95 | 1008.1 |
| 20260507030211 | 54 | 221 | 0.0 | 1.7 | 0.02 | 0.28 | 0.28 | 95 | 1008.0 |
| 20260507025710 | 54 | 221 | 0.0 | 1.7 | 0.02 | 0.28 | 0.28 | 94 | 1008.1 |
| 20260507025212 | 54 | 220 | 0.0 | 0.0 | 0.01 | 0.27 | 0.27 | 94 | 1008.0 |
| 20260507024711 | 54 | 220 | 0.0 | 0.9 | 0.01 | 0.27 | 0.27 | 94 | 1007.9 |
| 20260507024210 | 54 | 220 | 0.0 | 0.9 | 0.01 | 0.27 | 0.27 | 94 | 1007.9 |
| 20260507023713 | 54 | 220 | 0.0 | 2.6 | 0.01 | 0.27 | 0.27 | 93 | 1007.8 |
| 20260507023211 | 54 | 220 | 0.9 | 3.5 | 0.01 | 0.27 | 0.27 | 93 | 1007.8 |
| 20260507022712 | 55 | 221 | 0.9 | 5.2 | 0.01 | 0.27 | 0.27 | 93 | 1007.9 |
| 20260507022210 | 55 | 191 | 0.9 | 6.1 | 0.00 | 0.26 | 0.26 | 92 | 1007.9 |
| 20260507021712 | 55 | 216 | 0.0 | 6.1 | 0.00 | 0.26 | 0.26 | 92 | 1007.8 |
| 20260507021213 | 56 | 239 | 0.9 | 7.0 | 0.00 | 0.26 | 0.26 | 92 | 1007.8 |
| 20260507020711 | 56 | 241 | 0.9 | 7.8 | 0.00 | 0.26 | 0.26 | 93 | 1007.8 |
| 20260507020210 | 57 | 231 | 1.7 | 7.8 | 0.00 | 0.26 | 0.26 | 93 | 1007.7 |
| 20260507015710 | 58 | 211 | 1.7 | 4.3 | 0.00 | 0.26 | 0.26 | 95 | 1007.4 |
| 20260507015212 | 58 | 248 | 0.9 | 4.3 | 0.00 | 0.26 | 0.26 | 97 | 1006.9 |
| 20260507014711 | 58 | 348 | 0.9 | 3.5 | 0.00 | 0.26 | 0.26 | 97 | 1007.0 |
| 20260507014216 | 58 | 186 | 1.7 | 7.0 | 0.00 | 0.26 | 0.26 | 97 | 1006.8 |
| 20260507014210 | 58 | 186 | 0.9 | 5.2 | 0.00 | 0.26 | 0.26 | 97 | 1006.6 |
| 20260507013209 | 58 | 198 | 1.7 | 7.0 | 0.00 | 0.26 | 0.26 | 97 | 1006.7 |
| 20260507012709 | 58 | 201 | 1.7 | 4.3 | 0.00 | 0.26 | 0.26 | 97 | 1006.6 |
| 20260507012208 | 58 | 207 | 1.7 | 5.2 | 0.00 | 0.26 | 0.26 | 97 | 1006.6 |
| 20260507011716 | 58 | 210 | 1.7 | 6.1 | 0.00 | 0.26 | 0.26 | 97 | 1006.5 |
| 20260507011711 | 58 | 185 | 1.7 | 5.2 | 0.00 | 0.26 | 0.26 | 97 | 1006.5 |
| 20260507010706 | 58 | 239 | 1.7 | 6.1 | 0.00 | 0.26 | 0.26 | 97 | 1006.6 |
| 20260507010207 | 58 | 204 | 1.7 | 6.1 | 0.00 | 0.26 | 0.26 | 97 | 1006.6 |
| 20260507005708 | 58 | 189 | 1.7 | 6.1 | 0.00 | 0.26 | 0.26 | 97 | 1006.4 |
| 20260507005207 | 58 | 210 | 1.7 | 3.5 | 0.00 | 0.26 | 0.26 | 97 | 1006.4 |
| 20260507004713 | 58 | 195 | 1.7 | 7.0 | 0.00 | 0.26 | 0.26 | 97 | 1006.2 |
| 20260507004706 | 58 | 204 | 0.9 | 5.2 | 0.00 | 0.26 | 0.26 | 97 | 1006.3 |
| 20260507004330 | 58 | 171 | 1.7 | 7.0 | 0.00 | 0.26 | 0.26 | 97 | 1006.4 |
| 20260507003829 | 58 | 168 | 1.7 | 5.2 | 0.00 | 0.26 | 0.26 | 97 | 1006.6 |
| 20260507003335 | 58 | 175 | 1.7 | 5.2 | 0.00 | 0.26 | 0.26 | 97 | 1006.6 |
| 20260507003204 | 58 | 211 | 1.7 | 7.0 | 0.00 | 0.26 | 0.26 | 97 | 1006.5 |
| 20260507001706 | 58 | 143 | 1.7 | 5.2 | 0.00 | 0.26 | 0.26 | 97 | 1006.5 |
| 20260507001205 | 58 | 251 | 1.7 | 7.0 | 0.00 | 0.26 | 0.26 | 97 | 1006.6 |
| 20260507000701 | 58 | 182 | 1.7 | 7.0 | 0.00 | 0.26 | 0.26 | 97 | 1006.6 |
| 20260507000209 | 58 | 187 | 1.7 | 5.2 | 0.00 | 0.26 | 0.26 | 97 | 1006.5 |
| 20260507000205 | 58 | 226 | 1.7 | 5.2 | 0.00 | 0.26 | 0.26 | 97 | 1006.6 |
| 20260506235202 | 58 | 233 | 1.7 | 5.2 | 0.00 | 0.26 | 0.26 | 96 | 1006.4 |
| 20260506234702 | 58 | 168 | 1.7 | 6.1 | 0.00 | 0.26 | 0.26 | 96 | 1006.4 |
| 20260506234200 | 58 | 218 | 0.9 | 6.1 | 0.00 | 0.26 | 0.26 | 96 | 1006.2 |
| 20260506233705 | 58 | 222 | 1.7 | 5.2 | 0.01 | 0.26 | 0.26 | 96 | 1006.3 |
| 20260506233658 | 58 | 209 | 0.9 | 5.2 | 0.01 | 0.26 | 0.26 | 96 | 1006.3 |
| 20260506232700 | 58 | 221 | 1.7 | 4.3 | 0.01 | 0.26 | 0.26 | 96 | 1006.2 |
| 20260506232201 | 58 | 211 | 1.7 | 7.0 | 0.01 | 0.26 | 0.26 | 96 | 1006.1 |
| 20260506232156 | 58 | 193 | 1.7 | 4.3 | 0.01 | 0.26 | 0.26 | 96 | 1006.2 |
| 20260506231201 | 58 | 178 | 1.7 | 6.1 | 0.02 | 0.26 | 0.26 | 96 | 1006.0 |
| 20260506231157 | 58 | 209 | 1.7 | 7.0 | 0.02 | 0.26 | 0.26 | 96 | 1006.1 |
| 20260506230205 | 59 | 212 | 1.7 | 7.0 | 0.05 | 0.26 | 0.26 | 96 | 1005.9 |
| 20260506230157 | 58 | 197 | 0.9 | 6.1 | 0.02 | 0.26 | 0.26 | 96 | 1005.9 |
| 20260506225657 | 58 | 189 | 1.7 | 6.1 | 0.03 | 0.26 | 0.26 | 96 | 1005.9 |
| 20260506225157 | 59 | 196 | 2.6 | 7.0 | 0.04 | 0.26 | 0.26 | 96 | 1005.9 |
| 20260506224155 | 59 | 228 | 0.9 | 5.2 | 0.05 | 0.26 | 0.26 | 96 | 1005.8 |
| 20260506223656 | 59 | 218 | 0.9 | 4.3 | 0.04 | 0.25 | 0.25 | 96 | 1005.9 |
| 20260506223156 | 59 | 171 | 0.9 | 4.3 | 0.04 | 0.25 | 0.25 | 96 | 1005.7 |
| 20260506222657 | 59 | 206 | 0.9 | 7.0 | 0.04 | 0.25 | 0.25 | 96 | 1005.8 |
| 20260506222157 | 59 | 228 | 1.7 | 7.0 | 0.04 | 0.25 | 0.25 | 96 | 1005.8 |
| 20260506221656 | 59 | 209 | 0.9 | 5.2 | 0.04 | 0.25 | 0.25 | 96 | 1005.8 |
| 20260506221156 | 59 | 211 | 0.9 | 4.3 | 0.03 | 0.24 | 0.24 | 96 | 1005.8 |
| 20260506220656 | 59 | 185 | 1.7 | 4.3 | 0.04 | 0.24 | 0.24 | 96 | 1005.9 |
| 20260506220159 | 59 | 228 | 1.7 | 4.3 | 0.04 | 0.24 | 0.24 | 96 | 1005.9 |
| 20260506220155 | 59 | 196 | 1.7 | 6.1 | 0.03 | 0.23 | 0.23 | 96 | 1005.8 |
| 20260506215154 | 59 | 235 | 1.7 | 7.0 | 0.03 | 0.22 | 0.22 | 96 | 1005.8 |
| 20260506214658 | 59 | 203 | 2.6 | 6.1 | 0.04 | 0.21 | 0.21 | 96 | 1005.9 |
| 20260506214654 | 59 | 155 | 1.7 | 7.0 | 0.03 | 0.21 | 0.21 | 96 | 1005.9 |
| 20260506213653 | 59 | 221 | 1.7 | 5.2 | 0.05 | 0.21 | 0.21 | 96 | 1005.9 |
| 20260506213151 | 59 | 160 | 1.7 | 7.0 | 0.07 | 0.21 | 0.21 | 96 | 1005.9 |
| 20260506212650 | 59 | 185 | 0.9 | 7.0 | 0.07 | 0.21 | 0.21 | 96 | 1005.9 |
| 20260506212152 | 59 | 215 | 0.9 | 6.1 | 0.08 | 0.21 | 0.21 | 96 | 1006.0 |
| 20260506211649 | 59 | 192 | 1.7 | 6.1 | 0.08 | 0.21 | 0.21 | 96 | 1006.0 |
| 20260506211146 | 59 | 195 | 1.7 | 6.1 | 0.08 | 0.21 | 0.21 | 96 | 1006.0 |
| 20260506210653 | 59 | 183 | 1.7 | 6.1 | 0.08 | 0.20 | 0.20 | 96 | 1006.3 |
| 20260506210644 | 59 | 171 | 1.7 | 6.1 | 0.07 | 0.20 | 0.20 | 96 | 1006.1 |
| 20260506210146 | 59 | 215 | 0.9 | 3.5 | 0.07 | 0.20 | 0.20 | 96 | 1006.2 |
| 20260506205144 | 59 | 199 | 1.7 | 7.0 | 0.07 | 0.19 | 0.19 | 95 | 1006.3 |
| 20260506204646 | 59 | 227 | 1.7 | 7.0 | 0.06 | 0.18 | 0.19 | 95 | 1006.4 |
| 20260506204143 | 59 | 205 | 1.7 | 7.0 | 0.05 | 0.17 | 0.17 | 95 | 1006.4 |
| 20260506203643 | 59 | 180 | 2.6 | 6.1 | 0.04 | 0.16 | 0.16 | 95 | 1006.5 |
| 20260506203144 | 59 | 246 | 1.7 | 6.1 | 0.02 | 0.14 | 0.14 | 95 | 1006.5 |
| 20260506202642 | 59 | 183 | 0.9 | 6.1 | 0.02 | 0.14 | 0.14 | 95 | 1006.5 |
| 20260506202143 | 59 | 215 | 1.7 | 6.1 | 0.01 | 0.13 | 0.13 | 95 | 1006.5 |
| 20260506201643 | 59 | 207 | 1.7 | 5.2 | 0.01 | 0.13 | 0.13 | 95 | 1006.6 |
| 20260506201144 | 59 | 197 | 1.7 | 6.1 | 0.01 | 0.13 | 0.13 | 95 | 1006.5 |
| 20260506200645 | 59 | 223 | 1.7 | 6.1 | 0.01 | 0.13 | 0.13 | 94 | 1006.5 |
| 20260506200142 | 59 | 198 | 1.7 | 8.7 | 0.02 | 0.13 | 0.13 | 94 | 1006.6 |
| 20260506195643 | 59 | 192 | 1.7 | 8.7 | 0.01 | 0.12 | 0.12 | 94 | 1006.7 |
| 20260506195145 | 59 | 239 | 0.9 | 4.3 | 0.02 | 0.12 | 0.12 | 95 | 1006.8 |
| 20260506194642 | 59 | 234 | 2.6 | 7.8 | 0.02 | 0.12 | 0.12 | 94 | 1006.8 |
| 20260506194147 | 59 | 212 | 2.6 | 8.7 | 0.03 | 0.12 | 0.12 | 94 | 1006.8 |
| 20260506194142 | 59 | 228 | 3.5 | 8.7 | 0.02 | 0.12 | 0.12 | 94 | 1006.7 |
| 20260506193143 | 59 | 215 | 2.6 | 8.7 | 0.03 | 0.12 | 0.12 | 94 | 1006.7 |
| 20260506192651 | 59 | 207 | 2.6 | 7.0 | 0.04 | 0.12 | 0.12 | 94 | 1007.0 |
| 20260506192643 | 59 | 206 | 2.6 | 8.7 | 0.04 | 0.12 | 0.12 | 94 | 1006.9 |
| 20260506192310 | 59 | 193 | 2.6 | 7.0 | 0.04 | 0.12 | 0.12 | 94 | 1007.0 |
| 20260506191144 | 59 | 201 | 1.7 | 7.0 | 0.04 | 0.12 | 0.12 | 93 | 1006.9 |
| 20260506190641 | 60 | 168 | 1.7 | 7.8 | 0.05 | 0.12 | 0.12 | 93 | 1006.9 |
| 20260506190141 | 60 | 169 | 2.6 | 9.6 | 0.04 | 0.11 | 0.12 | 93 | 1007.0 |
| 20260506185642 | 60 | 153 | 2.6 | 9.6 | 0.04 | 0.11 | 0.11 | 93 | 1007.1 |
| 20260506185143 | 60 | 191 | 1.7 | 7.0 | 0.03 | 0.10 | 0.10 | 93 | 1007.1 |
| 20260506184641 | 60 | 180 | 1.7 | 7.0 | 0.04 | 0.10 | 0.10 | 93 | 1007.1 |
| 20260506184140 | 60 | 212 | 1.7 | 5.2 | 0.04 | 0.10 | 0.10 | 93 | 1007.3 |
| 20260506183642 | 60 | 234 | 1.7 | 5.2 | 0.04 | 0.09 | 0.09 | 93 | 1007.4 |
| 20260506183140 | 60 | 254 | 0.9 | 4.3 | 0.04 | 0.09 | 0.09 | 93 | 1007.0 |
| 20260506182640 | 60 | 206 | 0.9 | 6.1 | 0.04 | 0.08 | 0.08 | 93 | 1006.8 |
| 20260506182141 | 61 | 235 | 0.9 | 6.1 | 0.05 | 0.08 | 0.08 | 94 | 1006.9 |
| 20260506181648 | 61 | 230 | 0.9 | 7.0 | 0.06 | 0.08 | 0.08 | 93 | 1006.8 |
| 20260506181642 | 61 | 223 | 0.9 | 7.0 | 0.05 | 0.08 | 0.08 | 93 | 1006.8 |
| 20260506180644 | 61 | 254 | 0.0 | 5.2 | 0.07 | 0.07 | 0.07 | 93 | 1007.4 |
| 20260506180638 | 61 | 226 | 0.9 | 5.2 | 0.06 | 0.07 | 0.07 | 93 | 1007.3 |
| 20260506175639 | 61 | 165 | 0.9 | 7.0 | 0.07 | 0.07 | 0.07 | 93 | 1007.5 |
| 20260506175140 | 61 | 215 | 0.9 | 7.0 | 0.07 | 0.07 | 0.07 | 92 | 1007.6 |
| 20260506174637 | 61 | 205 | 0.0 | 5.2 | 0.06 | 0.06 | 0.06 | 92 | 1007.8 |
| 20260506174142 | 61 | 183 | 0.9 | 3.5 | 0.05 | 0.05 | 0.05 | 91 | 1008.1 |
| 20260506174137 | 61 | 184 | 0.0 | 2.6 | 0.06 | 0.06 | 0.06 | 92 | 1007.9 |
| 20260506173139 | 61 | 182 | 0.0 | 3.5 | 0.05 | 0.05 | 0.05 | 91 | 1008.2 |
| 20260506172636 | 61 | 178 | 0.9 | 5.2 | 0.04 | 0.04 | 0.04 | 89 | 1008.3 |
| 20260506172136 | 62 | 179 | 1.7 | 7.0 | 0.03 | 0.03 | 0.03 | 88 | 1008.4 |
| 20260506171638 | 62 | 193 | 2.6 | 7.8 | 0.03 | 0.03 | 0.03 | 87 | 1008.6 |
| 20260506171137 | 63 | 216 | 2.6 | 9.6 | 0.02 | 0.02 | 0.02 | 85 | 1008.7 |
| 20260506170634 | 64 | 221 | 2.6 | 9.6 | 0.01 | 0.01 | 0.01 | 83 | 1008.8 |
| 20260506170134 | 65 | 230 | 2.6 | 11.3 | 0.00 | 0.00 | 0.00 | 82 | 1008.7 |
| 20260506165638 | 66 | 158 | 3.5 | 8.7 | 0.00 | 0.00 | 0.00 | 77 | 1008.5 |
| 20260506165634 | 65 | 240 | 2.6 | 11.3 | 0.00 | 0.00 | 0.00 | 79 | 1008.5 |
| 20260506164632 | 66 | 177 | 4.3 | 12.2 | 0.00 | 0.00 | 0.00 | 75 | 1008.4 |
| 20260506164137 | 67 | 226 | 4.3 | 13.0 | 0.00 | 0.00 | 0.00 | 73 | 1008.2 |
| 20260506164132 | 66 | 213 | 4.3 | 12.2 | 0.00 | 0.00 | 0.00 | 74 | 1008.2 |
| 20260506163128 | 67 | 149 | 4.3 | 13.0 | 0.00 | 0.00 | 0.00 | 74 | 1008.2 |
| 20260506162629 | 67 | 197 | 4.3 | 13.0 | 0.00 | 0.00 | 0.00 | 72 | 1008.2 |
| 20260506162134 | 68 | 170 | 4.3 | 11.3 | 0.00 | 0.00 | 0.00 | 72 | 1008.3 |
| 20260506162128 | 67 | 246 | 3.5 | 11.3 | 0.00 | 0.00 | 0.00 | 74 | 1008.2 |
| 20260506161126 | 68 | 139 | 4.3 | 11.3 | 0.00 | 0.00 | 0.00 | 72 | 1008.4 |
| 20260506160624 | 68 | 185 | 3.5 | 10.4 | 0.00 | 0.00 | 0.00 | 72 | 1008.5 |
| 20260506160126 | 67 | 232 | 3.5 | 10.4 | 0.00 | 0.00 | 0.00 | 72 | 1008.5 |
| 20260506155626 | 67 | 189 | 3.5 | 11.3 | 0.00 | 0.00 | 0.00 | 72 | 1008.7 |
| 20260506155122 | 68 | 212 | 2.6 | 11.3 | 0.00 | 0.00 | 0.00 | 72 | 1008.6 |
| 20260506154621 | 67 | 190 | 2.6 | 10.4 | 0.00 | 0.00 | 0.00 | 73 | 1008.6 |
| 20260506154125 | 67 | 192 | 3.5 | 8.7 | 0.00 | 0.00 | 0.00 | 72 | 1008.6 |
| 20260506154120 | 67 | 193 | 3.5 | 10.4 | 0.00 | 0.00 | 0.00 | 73 | 1008.6 |
| 20260506153121 | 67 | 200 | 2.6 | 8.7 | 0.00 | 0.00 | 0.00 | 72 | 1008.8 |
| 20260506152616 | 67 | 237 | 2.6 | 9.6 | 0.00 | 0.00 | 0.00 | 73 | 1008.7 |
| 20260506152126 | 67 | 219 | 2.6 | 7.8 | 0.00 | 0.00 | 0.00 | 74 | 1008.7 |
| 20260506152117 | 67 | 204 | 3.5 | 9.6 | 0.00 | 0.00 | 0.00 | 73 | 1008.7 |
| 20260506151116 | 67 | 214 | 2.6 | 11.3 | 0.00 | 0.00 | 0.00 | 74 | 1008.8 |
| 20260506150617 | 67 | 170 | 3.5 | 11.3 | 0.00 | 0.00 | 0.00 | 74 | 1008.8 |
| 20260506150115 | 66 | 231 | 2.6 | 10.4 | 0.00 | 0.00 | 0.00 | 75 | 1008.9 |
| 20260506145619 | 66 | 215 | 3.5 | 8.7 | 0.00 | 0.00 | 0.00 | 75 | 1009.0 |
| 20260506145614 | 66 | 170 | 2.6 | 10.4 | 0.00 | 0.00 | 0.00 | 75 | 1009.0 |
| 20260506144613 | 66 | 194 | 2.6 | 8.7 | 0.00 | 0.00 | 0.00 | 75 | 1009.1 |
| 20260506144112 | 66 | 220 | 3.5 | 10.4 | 0.00 | 0.00 | 0.00 | 76 | 1009.1 |
| 20260506143617 | 65 | 181 | 3.5 | 10.4 | 0.00 | 0.00 | 0.00 | 75 | 1009.2 |
| 20260506143612 | 66 | 162 | 3.5 | 10.4 | 0.00 | 0.00 | 0.00 | 75 | 1009.1 |
| 20260506142610 | 65 | 265 | 4.3 | 10.4 | 0.00 | 0.00 | 0.00 | 76 | 1009.2 |
| 20260506142110 | 65 | 176 | 3.5 | 10.4 | 0.00 | 0.00 | 0.00 | 76 | 1009.2 |
| 20260506141611 | 65 | 199 | 2.6 | 8.7 | 0.00 | 0.00 | 0.00 | 77 | 1009.3 |
| 20260506141114 | 65 | 220 | 3.5 | 8.7 | 0.00 | 0.00 | 0.00 | 77 | 1009.3 |
| 20260506141109 | 65 | 167 | 3.5 | 8.7 | 0.00 | 0.00 | 0.00 | 76 | 1009.2 |
| 20260506140732 | 65 | 222 | 3.5 | 8.7 | 0.00 | 0.00 | 0.00 | 76 | 1009.2 |
| 20260506135605 | 65 | 163 | 4.3 | 7.8 | 0.00 | 0.00 | 0.00 | 77 | 1009.1 |
| 20260506135104 | 65 | 126 | 3.5 | 10.4 | 0.00 | 0.00 | 0.00 | 78 | 1009.1 |
| 20260506134605 | 65 | 221 | 3.5 | 10.4 | 0.00 | 0.00 | 0.00 | 77 | 1009.0 |
| 20260506134105 | 65 | 232 | 3.5 | 8.7 | 0.00 | 0.00 | 0.00 | 78 | 1009.0 |
| 20260506133604 | 65 | 155 | 4.3 | 11.3 | 0.00 | 0.00 | 0.00 | 78 | 1008.9 |
| 20260506133107 | 65 | 249 | 3.5 | 11.3 | 0.00 | 0.00 | 0.00 | 78 | 1008.9 |
| 20260506132604 | 64 | 206 | 3.5 | 7.8 | 0.00 | 0.00 | 0.00 | 80 | 1009.0 |
| 20260506132107 | 64 | 234 | 3.5 | 12.2 | 0.00 | 0.00 | 0.00 | 80 | 1009.1 |
| 20260506132103 | 64 | 223 | 3.5 | 9.6 | 0.00 | 0.00 | 0.00 | 79 | 1009.2 |
| 20260506131100 | 64 | 180 | 2.6 | 12.2 | 0.00 | 0.00 | 0.00 | 80 | 1009.2 |
| 20260506130601 | 64 | 215 | 1.7 | 7.0 | 0.00 | 0.00 | 0.00 | 81 | 1009.1 |
| 20260506125559 | 63 | 176 | 3.5 | 13.0 | 0.00 | 0.00 | 0.00 | 80 | 1009.4 |
| 20260506125100 | 64 | 198 | 4.3 | 10.4 | 0.00 | 0.00 | 0.00 | 80 | 1009.6 |
| 20260506124557 | 64 | 162 | 3.5 | 9.6 | 0.00 | 0.00 | 0.00 | 80 | 1009.8 |
| 20260506124058 | 64 | 146 | 2.6 | 9.6 | 0.00 | 0.00 | 0.00 | 80 | 1009.6 |
| 20260506123557 | 64 | 234 | 2.6 | 9.6 | 0.00 | 0.00 | 0.00 | 81 | 1009.7 |
| 20260506123056 | 63 | 226 | 3.5 | 9.6 | 0.00 | 0.00 | 0.00 | 81 | 1009.7 |
| 20260506122558 | 63 | 207 | 3.5 | 9.6 | 0.00 | 0.00 | 0.00 | 82 | 1009.7 |
| 20260506122102 | 63 | 231 | 3.5 | 9.6 | 0.00 | 0.00 | 0.00 | 82 | 1009.4 |
| 20260506122058 | 63 | 206 | 3.5 | 9.6 | 0.00 | 0.00 | 0.00 | 81 | 1009.5 |
| 20260506121055 | 63 | 178 | 2.6 | 8.7 | 0.00 | 0.00 | 0.00 | 81 | 1009.4 |
| 20260506120554 | 62 | 218 | 1.7 | 7.0 | 0.00 | 0.00 | 0.00 | 82 | 1009.6 |
| 20260506120100 | 62 | 235 | 3.5 | 9.6 | 0.00 | 0.00 | 0.00 | 82 | 1009.5 |
| 20260506120056 | 62 | 175 | 2.6 | 9.6 | 0.00 | 0.00 | 0.00 | 82 | 1009.5 |
| 20260506115054 | 62 | 232 | 2.6 | 9.6 | 0.00 | 0.00 | 0.00 | 83 | 1009.7 |
| 20260506114556 | 62 | 216 | 2.6 | 7.8 | 0.00 | 0.00 | 0.00 | 83 | 1009.7 |
| 20260506114054 | 62 | 191 | 3.5 | 8.7 | 0.00 | 0.00 | 0.00 | 83 | 1009.6 |
| 20260506113553 | 61 | 165 | 2.6 | 8.7 | 0.00 | 0.00 | 0.00 | 83 | 1009.5 |
| 20260506113052 | 61 | 232 | 2.6 | 10.4 | 0.00 | 0.00 | 0.00 | 84 | 1009.5 |
| 20260506112552 | 61 | 210 | 2.6 | 10.4 | 0.00 | 0.00 | 0.00 | 83 | 1009.4 |
| 20260506112055 | 61 | 222 | 1.7 | 8.7 | 0.00 | 0.00 | 0.00 | 84 | 1009.7 |
| 20260506111553 | 61 | 218 | 0.9 | 7.0 | 0.00 | 0.00 | 0.00 | 84 | 1010.0 |
| 20260506111053 | 61 | 174 | 1.7 | 7.0 | 0.00 | 0.00 | 0.00 | 84 | 1010.0 |
| 20260506110552 | 60 | 186 | 1.7 | 6.1 | 0.00 | 0.00 | 0.00 | 84 | 1009.9 |
| 20260506110054 | 60 | 212 | 1.7 | 7.0 | 0.00 | 0.00 | 0.00 | 84 | 1009.9 |
| 20260506105552 | 60 | 145 | 1.7 | 7.0 | 0.00 | 0.00 | 0.00 | 84 | 1009.9 |
| 20260506105052 | 61 | 182 | 1.7 | 8.7 | 0.00 | 0.00 | 0.00 | 84 | 1010.0 |
| 20260506104553 | 60 | 179 | 1.7 | 8.7 | 0.00 | 0.00 | 0.00 | 84 | 1010.0 |
| 20260506104053 | 60 | 231 | 1.7 | 7.0 | 0.00 | 0.00 | 0.00 | 84 | 1009.9 |
| 20260506103551 | 60 | 195 | 1.7 | 7.0 | 0.00 | 0.00 | 0.00 | 85 | 1009.7 |
| 20260506103049 | 60 | 189 | 0.9 | 4.3 | 0.00 | 0.00 | 0.00 | 85 | 1009.5 |
| 20260506102554 | 60 | 189 | 0.0 | 1.7 | 0.00 | 0.00 | 0.00 | 85 | 1009.5 |
| 20260506102549 | 60 | 222 | 0.9 | 4.3 | 0.00 | 0.00 | 0.00 | 85 | 1009.5 |
| 20260506101550 | 60 | 190 | 0.9 | 7.0 | 0.00 | 0.00 | 0.00 | 85 | 1009.6 |
| 20260506101051 | 60 | 184 | 0.9 | 7.0 | 0.00 | 0.00 | 0.00 | 85 | 1009.5 |
| 20260506100547 | 59 | 198 | 0.9 | 4.3 | 0.00 | 0.00 | 0.00 | 85 | 1009.5 |
| 20260506100048 | 59 | 178 | 0.9 | 4.3 | 0.00 | 0.00 | 0.00 | 85 | 1009.6 |
| 20260506095547 | 59 | 220 | 0.9 | 4.3 | 0.00 | 0.00 | 0.00 | 85 | 1009.6 |
| 20260506095047 | 59 | 212 | 0.9 | 10.4 | 0.00 | 0.00 | 0.00 | 85 | 1009.5 |
| 20260506094553 | 59 | 209 | 0.0 | 2.6 | 0.00 | 0.00 | 0.00 | 84 | 1009.6 |
| 20260506094546 | 59 | 215 | 0.9 | 10.4 | 0.00 | 0.00 | 0.00 | 84 | 1009.6 |
| 20260506093544 | 60 | 210 | 0.9 | 6.1 | 0.00 | 0.00 | 0.00 | 84 | 1009.6 |
| 20260506093045 | 60 | 210 | 0.9 | 6.1 | 0.00 | 0.00 | 0.00 | 84 | 1009.6 |
| 20260506092546 | 60 | 193 | 0.9 | 4.3 | 0.00 | 0.00 | 0.00 | 83 | 1009.6 |
| 20260506092046 | 60 | 200 | 0.9 | 3.5 | 0.00 | 0.00 | 0.00 | 83 | 1009.5 |
| 20260506091544 | 60 | 169 | 0.0 | 3.5 | 0.00 | 0.00 | 0.00 | 83 | 1009.6 |
| 20260506091043 | 60 | 168 | 0.9 | 3.5 | 0.00 | 0.00 | 0.00 | 82 | 1009.6 |
| 20260506090543 | 60 | 202 | 0.9 | 5.2 | 0.00 | 0.00 | 0.00 | 82 | 1009.5 |
| 20260506090043 | 60 | 188 | 1.7 | 5.2 | 0.00 | 0.00 | 0.00 | 82 | 1009.5 |
| 20260506085542 | 60 | 175 | 0.9 | 5.2 | 0.00 | 0.00 | 0.00 | 82 | 1009.6 |
| 20260506085045 | 60 | 201 | 0.9 | 5.2 | 0.00 | 0.00 | 0.00 | 81 | 1009.5 |
| 20260506084542 | 61 | 255 | 0.9 | 7.0 | 0.00 | 0.00 | 0.00 | 81 | 1009.6 |
| 20260506084042 | 61 | 258 | 0.9 | 7.0 | 0.00 | 0.00 | 0.00 | 81 | 1009.6 |
| 20260506083542 | 61 | 203 | 1.7 | 4.3 | 0.00 | 0.00 | 0.00 | 80 | 1009.6 |
| 20260506083047 | 61 | 221 | 1.7 | 7.0 | 0.00 | 0.00 | 0.00 | 81 | 1009.6 |
| 20260506083042 | 61 | 225 | 1.7 | 7.0 | 0.00 | 0.00 | 0.00 | 81 | 1009.5 |
| 20260506082704 | 61 | 243 | 1.7 | 6.1 | 0.00 | 0.00 | 0.00 | 81 | 1009.5 |
| 20260506081547 | 60 | 224 | 1.7 | 7.8 | 0.00 | 0.00 | 0.00 | 81 | 1009.5 |
| 20260506081539 | 61 | 226 | 1.7 | 6.1 | 0.00 | 0.00 | 0.00 | 81 | 1009.5 |
| 20260506081040 | 60 | 212 | 1.7 | 7.8 | 0.00 | 0.00 | 0.00 | 81 | 1009.6 |
| 20260506073157 | 61 | 193 | 1.7 | 5.2 | 0.00 | 0.00 | 0.00 | 80 | 1009.7 |
| 20260506072037 | 61 | 187 | 2.6 | 7.8 | 0.00 | 0.00 | 0.00 | 79 | 1009.8 |
| 20260506071536 | 61 | 216 | 3.5 | 7.8 | 0.00 | 0.00 | 0.00 | 80 | 1009.8 |
| 20260506071036 | 61 | 257 | 2.6 | 12.2 | 0.00 | 0.00 | 0.00 | 80 | 1009.8 |